Location: Hope
(40.9110°N, 74.9680°W)
Time: 00:56:13
(UTC-05:00)

N. Korean satellite - Pass Details

Date: 24 January 2019
Orbit: 457 x 510 km, 97.2° (Epoch: 17 February)

Event Time Altitude Azimuth Distance (km) Brightness Sun altitude
Rises 06:05:25 0° 14° (NNE) 2,610 10.3 -13.6°
Reaches altitude 10° 06:07:32 10° 17° (NNE) 1,714 9.4 -13.2°
Maximum altitude 06:11:12 67° 100° (E) 539 7.0 -12.6°
Drops below altitude 10° 06:14:48 10° 184° (S) 1,671 9.4 -11.9°
Sets 06:16:50 0° 187° (S) 2,538 10.3 -11.5°
